Regional Weather Roundup
Issued by NWS Newport/Morehead, NC

Current Version | Previous Version | Graphics & Text | Print | Product List | Glossary Off
Versions: 1 2 3 4 5 6 7 8 9 10 11 12 13 14 15 16 17 18 19 20 21 22 23 24 25 26 27 28 29 30 31 32 33 34 35 36 37 38 39 40 41 42 43 44 45 46 47 48 49 50
000 ASUS42 KMHX 272213 RWRMHX WEATHER ROUNDUP FOR EASTERN NORTH CAROLINA NATIONAL WEATHER SERVICE NEWPORT/MOREHEAD CITY NC 600 PM EDT WED MAY 27 2015 NOTE: "FAIR" INDICATES FEW OR NO CLOUDS BELOW 12,000 FEET WITH NO SIGNIFICANT WEATHER AND/OR OBSTRUCTIONS TO VISIBILITY NCZ015>017-031-032-045>047-102-103-272300- NORTH COAST CITY SKY/WX TMP DP RH WIND PRES REMARKS EDENTON N/A 80 69 69 S15G21 30.20S ELIZABETH CITY SUNNY 80 67 64 S12 30.20F KITTY HAWK CLEAR 77 65 66 S10G21 30.21S MANTEO SUNNY 76 65 69 S21 30.22F $$ NCZ045>047-081-094-103-104-272300- CENTRAL COAST CITY SKY/WX TMP DP RH WIND PRES REMARKS FRISCO SUNNY 77 62 59 S14 30.24F SWANQUARTER N/A 79 N/A N/A S15G23 30.18S $$ NCZ095-097-098-100-101-272300- SOUTHERN COAST CITY SKY/WX TMP DP RH WIND PRES REMARKS BEAUFORT SUNNY 76 65 68 S14 30.23F CEDAR ISLAND N/A 79 N/A N/A S13G21 30.27S JACKSONVILLE CLOUDY 80 66 62 S14 30.22S PINEY ISLAND CLEAR N/A N/A N/A S15G23 30.23F WILMINGTON MOSUNNY 78 67 68 SE10 30.22S $$ NCZ011>013-027>030-043-044-078>080-089-090>093-098-272300- COASTAL PLAIN CITY SKY/WX TMP DP RH WIND PRES REMARKS AHOSKIE SUNNY 84 69 60 S10G16 30.16F CLINTON LGT RAIN 77 73 87 S3 30.20R ELIZABETHTOWN CLOUDY 80 67 63 S7 30.20S GOLDSBORO PTSUNNY 82 69 65 S8G18 30.16R GREENVILLE MOSUNNY 82 70 65 S10 30.19S HAVELOCK PTSUNNY 78 66 66 S12 30.23F KENANSVILLE PTSUNNY 79 66 65 SE7 30.20S KINSTON MOSUNNY 82 68 61 S14 30.20R NEW BERN PTSUNNY 80 67 64 S9G20 30.22F RICHLANDS PTSUNNY 79 64 61 S12 30.22R ROCKY MOUNT MOSUNNY 86 68 54 SE5 30.16S WASHINGTON MOSUNNY 81 67 63 S9G17 30.19F WHITEVILLE PTSUNNY 79 65 62 S7 30.21S $$ AMZ130-135-150-152-154-156-158-170-250-252-270-ANZ085-086-088-633-658-670-272300- MARINE OBSERVATIONS STATION/POSITION TIME TEMP WIND PRES WAVE SWELL AIR SEA DIR/SP/G HT/PER HT/PER (UTC) (F) (DEG/KT/KT) (MB) (FT/S) (FT/S) CHESAPEAKE LIGHT 2100 69 170/ 29/ 31 1022.0 64 E VA BEACH 2050 68 64 170/ 16/ 17 1023.4 3/ 7 2/ 7 DUCK 2100 74 58 160/ 19/ 24 1021.9 2 E DUCK 2111 64 N/A 2/ 6 OREGON INLET 2100 76 78 170/ 17/ 20 1024.0 13E OREGON INLT 2100 71 N/A 3/ 6 HATTERAS CG 2100 76 75 160/ 13/ 17 1024.0 DIAMOND BUOY 2050 75 77 160/ 16/ 17 1024.6 3/ 7 2/ 7 CAPE LOOKOUT 2100 74 150/ 14/ 16 1023.8 BEAUFORT LAB 2100 76 75 170/ 13/ 16 1023.2 27 SE WRIGHTSVLE 2100 76 170/ 12/ 14 N/A 5 SE WRIGHTSVLE 2108 77 77 170/ 14/ 19 1023.5 225 S CAPE HAT 2050 74 75 90/ 10/ 12 1024.5 4/ 8 3/ 8 41 SE CHARLESTON 2050 78 78 130/ 8/ 10 1022.7 3/ 7 3/ 7 $$

USA.gov is the U.S. government's official web portal to all federal, state and local government web resources and services.